Tracking 29892 objects as of 21-Nov-2024
HD Live streaming from Space Station
objects crossing your sky now

STARLINK-30476

Track STARLINK-30476 now!
10-day predictions
STARLINK-30476 is classified as:


NORAD ID: 57930
Int'l Code: 2023-147T
Perigee: 565.3 km
Apogee: 567.1 km
Inclination: 43.0 °
Period: 95.8 minutes
Semi major axis: 6937 km
RCS: Unknown
Launch date: September 24, 2023
Source: United States (US)
Launch site: AIR FORCE EASTERN TEST RANGE (AFETR)
Your satellite tracking list
Your tracking list is empty




NASA's NSSDC Master Catalog

Two Line Element Set (TLE):
1 57930U 23147T   24326.15397229  .00000083  00000-0  21184-4 0  9997
2 57930  43.0039   6.0071 0001323 305.3538  54.7180 15.02541955 65480
Source of the keplerian elements: AFSPC